Regional Weather Roundup
Issued by NWS Wakefield, VA

Home | Current Version | Previous Version | Text Only | Print | Product List | Glossary Off
Versions: 1 2 3 4 5 6 7 8 9 10 11 12 13 14 15 16 17 18 19 20 21 22 23 24 25 26 27 28 29 30 31 32 33 34 35 36 37 38 39 40 41 42 43 44 45 46 47 48 49 50

773
ASUS41 KAKQ 191415
RWRAKQ

REGIONAL WEATHER ROUNDUP
NATIONAL WEATHER SERVICE WAKEFIELD VA
900 AM EST THU JAN 19 2017

Note: "fair" indicates few or no clouds below 12,000 feet with no
significant weather and/or obstructions to visibility. * = Denotes
station may not report precipitation (e.g., rain,snow,etc.),
thunder or fog.

VAZ042-051-052>054-056-191500-
NORTHERN VIRGINIA

CITY           SKY/WX    TMP DP  RH WIND       PRES   REMARKS
WASH NATIONAL  CLOUDY    48  37  65 N10       30.11S
DULLES         CLOUDY    45  35  68 N5        30.10S
FORT BELVOIR   CLOUDY    44  37  78 CALM      30.10S
QUANTICO       PTSUNNY   39  37  92 CALM      30.12S
FREDERICKSBRG* MOSUNNY   37  37 100 CALM      30.11R
STAFFORD*      CLOUDY    35  35 100 CALM      30.15R
WARRENTON      MOSUNNY   36  32  87 CALM      30.10R
CULPEPER*      PTSUNNY   34  33  98 CALM      30.13R
MANASSAS*      CLOUDY   N/A N/A N/A S7        30.12R
LEESBURG*      CLOUDY    46  39  76 CALM      30.11R
WINCHESTER     CLOUDY    41  36  81 CALM      30.10R
FRONT ROYAL*   FAIR      34  34 100 CALM      30.09R
LURAY*         FAIR      32  32 100 CALM      30.10R
$$

VAZ048-049-060>072-079>083-191500-
CENTRAL AND SOUTH CENTRAL VIRGINIA

CITY           SKY/WX    TMP DP  RH WIND       PRES   REMARKS
RICHMOND       CLOUDY    42  37  82 NW3       30.12R
CHESTERFIELD*  FAIR      39  23  52 CALM      30.13R
PETERSBURG*    CLOUDY    37  36  93 CALM      30.13R
HANOVER        CLOUDY    40  36  86 CALM      30.13R
TAPPAHANNOCK*  CLOUDY    40  40 100 CALM      30.12S
QUINTON*       FAIR      37  37 100 CALM      30.11R
CHARLOTTSVILLE CLOUDY    37  35  92 CALM      30.10R
GORDONSVILLE*  FAIR      33  33  99 CALM      30.10S
ORANGE*          N/A     34  34 100 CALM      30.12S
LOUISA*        CLOUDY    39  39 100 CALM      30.10R
BUMPASS*       FAIR      35  35 100 CALM      30.11R
FARMVILLE*     MOSUNNY   36  36 100 CALM      30.11R
CREWE*         FAIR      37  37 100 CALM      30.11S
FORT PICKETT*  FAIR      38  35  88 CALM      30.11S
CHASE CITY*    FAIR      39  38  94 CALM      30.13R
CLARKSVILLE*   FAIR      41  37  87 CALM      30.12S
SOUTH HILL*    MOSUNNY   40  38  92 CALM      30.18R
LAWRENCEVILLE* FAIR      38  37  94 CALM      30.12R
EMPORIA*       CLOUDY    39  36  87 CALM      30.15R
$$

VAZ088>098-191500-
SOUTHEAST VIRGINIA

CITY           SKY/WX    TMP DP  RH WIND       PRES   REMARKS
NORFOLK        MOSUNNY   45  38  76 N5        30.10R
VIRGINIA BEACH CLOUDY    44  39  82 N5        30.09S
NORFOLK NAVAL  CLOUDY    45  39  79 N5        30.11S
WEST POINT*    CLOUDY    38  38  97 CALM      30.13S
SALUDA*        FAIR      42  38  85 NW3       30.11S
NEWPORT NEWS   CLOUDY    45  38  76 CALM      30.11R
LANGLEY AFB    PTSUNNY   44  38  80 N3        30.10S
FORT EUSTIS    MOSUNNY   44  36  74 CALM      30.09R
WILLIAMSBURG*  CLOUDY    45  39  81 CALM      30.12R
HR EXEC AP*    FAIR      39  37  93 CALM      30.10S
FRANKLIN*      MOSUNNY   40  37  89 CALM      30.13R
US460-WAKEFLD  CLOUDY    40  38  93 CALM      30.12R
$$

VAZ020-022-025-037-045-191500-
WEST CENTRAL AND SOUTHWEST VIRGINIA

CITY           SKY/WX    TMP DP  RH WIND       PRES   REMARKS
STAUNTON*      MOSUNNY   30  29  96 CALM      30.11R
WAYNESBORO*    FAIR      36  34  93 CALM      30.08R
HOT SPRINGS VA CLOUDY    37  37 100 NW5       30.04R
LYNCHBURG      CLOUDY    39  37  92 CALM      30.13R
DANVILLE       CLOUDY    39  38  96 CALM      30.13R
SOUTH BOSTON*  FAIR      39  38  95 CALM      30.14R
MARTINSVILLE   CLOUDY    35  33  90 CALM      30.15R
ROANOKE        CLOUDY    44  38  79 NE3       30.14R
BLACKSBURG     CLOUDY    38  37  95 CALM      30.13R
DUBLIN*        CLOUDY    38  38 100 CALM      30.11S
MARION*        CLOUDY    40  39  95 CALM      30.12R
HILLSVILLE*    CLOUDY    41  37  85 CALM      30.08S
RICHLANDS*     FAIR     N/A N/A N/A CALM      30.08S
WISE*          CLOUDY    45  34  65 E3        30.08S
ABINGDON*      CLOUDY    42  41  96 E7        30.09S
$$

MDZ021>025-VAZ099-100-191500-
SOUTHERN MARYLAND AND THE DELMARVA PENINSULA

CITY           SKY/WX    TMP DP  RH WIND       PRES   REMARKS
PATUXENT RIVER CLOUDY    43  38  82 W5        30.10S
BAY BRIDGE APT CLOUDY    45  37  76 NW3       30.09F
LEONARDTOWN    MOSUNNY   43  36  75 CALM      30.12S
DOVER          CLOUDY    46  44  94 NW8       30.08R
GEORGETOWN     NOT AVBL
EASTON         PTSUNNY   46  37  71 N5        30.13S
CAMBRIDGE      CLOUDY    43  36  75 NW3       30.09S
SALISBURY      CLOUDY    46  38  73 N8        30.09R
OCEAN CITY     CLOUDY    45  42  89 NW3       30.09R
WALLOPS ISLAND CLOUDY    44  40  85 NW5       30.10R
ACCOMACK*      MOSUNNY   43  40  91 NW5       30.10R
$$

NCZ012>017-030>032-191500-
NORTH CENTRAL AND EASTERN NORTH CAROLINA

CITY           SKY/WX    TMP DP  RH WIND       PRES   REMARKS
ROANOKE RAPIDS FAIR      41  39  93 CALM      30.13R
RALEIGH        CLOUDY    45  39  79 NE3       30.13R
ELIZABETH CITY CLOUDY    45  40  82 N5        30.11R
AHOSKIE*         N/A     42  37  81 N5        30.13R
EDENTON*       CLOUDY    45  40  85 CALM      30.12S
CURRITUCK*     CLOUDY    43  41  93 CALM      30.11S
KILL DEVIL HLS NOT AVBL
MANTEO         CLOUDY    46  45  97 N6        30.11R
CAPE HATTERAS  MOSUNNY   49  45  86 N6        30.10R FOG
TARBORO*       NOT AVBL
GOLDSBORO      SUNNY     46  43  90 E6        30.11R
WASHINGTON       N/A     45  40  83 N5          N/A
GREENVILLE     SUNNY     41  41 100 CALM      30.13S
NEW BERN       MOSUNNY   45  43  93 N5        30.13R FOG
WILMINGTON     SUNNY     48  45  89 NE7       30.12R
$$

VAZ048-191500-
ELSEWHERE

CITY           SKY/WX    TMP DP  RH WIND       PRES   REMARKS
HARRISBURG PA  NOT AVBL
BALTIMORE      CLOUDY    46  36  68 NW8       30.09S
ANNAPOLIS      CLOUDY    45  37  73 N3        30.09S
ANDREWS AFB    CLOUDY    45  36  69 N8        30.08F
PHILADELPHIA   MOSUNNY   44  36  73 N5        30.09S
HENDERSON NC   CLOUDY    39  36  87 CALM      30.13R
GREENSBORO     PTSUNNY   44  38  79 NE3       30.11R
ROCKY MOUNT    SUNNY     44  40  85 N5        30.14R
$$

VAZ100-191500-
MARINE

STATION/POSITION TIME  TEMP    WIND        PRES    WAVE   SWELL
                       AIR SEA DIR/SP/G            HT/PER HT/PER
                 (UTC) (F)     (DEG/KT/KT) (MB)    (FT/S) (FT/S)
CAPE MAY NJ      1342   41 41  330/  3/  6 1018.3R
LEWES DE         1342   44 42  300/  7/  7 1018.7R
OCEAN-CITY-INLET 1342   44 43  330/  5/  6 1019.2R
WACHAPREAGUE VA  1342   45 48  300/  3/  5 1019.1R
THOMAS POINT MD  1400   44 40  310/  7/  7   N/A
GOOSES REEF MD   1350   40     260/  2/  4 1019.8S
COVE POINT MD    1342   43     340/  7/  8 1019.9R
SOLOMONS ISLAND  1342   42 41  260/  2/  3   N/A
BISHOPS HEAD MD  1342   45 44  330/  6/  7 1019.4R
PINEY POINT MD   1348          290/  4/  4   N/A
POTOMAC MD       1350   41     310/  6/  6 1018.6R
CAMBRIDGE MD     1342   43 40  320/  5/  6 1018.4S
LEWISETTA VA     1342   44 43  320/  4/  5 1019.4R
RAPPAHANNOCK LGT 1348          300/  8/  8 1019.9R
STINGRAY PT      1350   42     310/  8/  8 1019.8R
YORK RVR RNG VA  1342   42     330/  5/  6 1018.8R
YORKTOWN VA      1342   43 43  320/  5/  6 1019.1S
JAMESTOWN VA     1350   41     320/  4/  6   N/A
DOMINION TERM VA 1342   44     360/  5/  6 1019.4S
KIPTOPEKE VA     1348      44  340/  5/  7   N/A
CHES BAY BRIDGE  1336   43 45  350/  6/  7 1019.2R
CAPE HENRY VA    1336   43     330/  6/  6   N/A
WILLOUBY STN VA  1342   43     330/  5/  6 1020.1R
S CRANEY ISL VA  1342   44     310/  3/  4 1019.2R
CAPE HENRY BUOY  1342      48                N/A     4/ 7
OFFSHORE WE BUOY 1351      49                N/A     4/ 8
64NM E OF VA BCH 1350   50 58   20/ 14/ 17 1017.9R   5/ 8   3/ 8
DUCK PIER NC     1336   44 45  340/  9/ 11 1018.5R
44100 DUCK FRF   1305      48                N/A     5/ 7
44056 DUCK FRF   1330      45                N/A     4/ 7
OREGON INLET NC  1336   47 49  360/  7/  9 1018.7R
HATTERAS NC      1336   47 54  340/ 11/ 12 1018.8R
DIAMOND SHLS NC  1350   52 75  360/ 16/ 21 1018.5R   7/10   5/10
CAPE LOOKOUT NC  1300   47     360/  9/ 10 1018.5R
$$




USA.gov is the U.S. government's official web portal to all federal, state and local government web resources and services.